Change the Weather History Date:

Tuesday, November 29, 2011

  Actual Average Record
Temperature  
Mean Temperature 32 °F -  
Max Temperature 37 °F 37 °F 64 °F (1998)
Min Temperature 26 °F 24 °F -4 °F (1976)
Degree Days  
Heating Degree Days 34    
Moisture  
Dew Point 23 °F    
Average Humidity 73    
Maximum Humidity 93    
Minimum Humidity 27    
Precipitation  
Precipitation 0.00 in - - ()
Sea Level Pressure  
Sea Level Pressure 30.01 in    
Wind  
Wind Speed 11 mph (North)    
Max Wind Speed 23 mph    
Max Gust Speed 34 mph    
Visibility 10 miles    
Events      
Averages and records for this station are not official NWS values.
T = Trace of Precipitation, MM = Missing Value Source: NWS Daily Summary

Daily Weather History Graph

Daily Weather History Graph

Search for Another Location

Airport or City:

Trip Planner

Search our weather history database for the weather conditions in past years. The results will help you decide how hot, cold, wet, or windy it might be!

Date:

Astronomy

Nov. 29, 2011 Rise Set
Actual Time 7:01 AM CST 4:19 PM CST
Civil Twilight 6:29 AM CST 4:50 PM CST
Nautical Twilight 5:54 AM CST 5:25 PM CST
Astronomical Twilight 5:20 AM CST 6:00 PM CST
Moon 10:45 AM CST (11/29) 9:15 PM CST (11/29)
Length of Visible Light 10h 20m
Length of Day
9h 17m
Waxing Crescent, 24% of the Moon is Illuminated
Nov 29
Waxing Crescent
Dec 2
First Quarter
Dec 10
Full
Dec 17
Last Quarter
Dec 24
New

Hourly Weather History & Observations

Time (CST) Temp. Windchill Dew Point Humidity Pressure Visibility Wind Dir Wind Speed Gust Speed Precip Events Conditions
12:15 AM 26.6 °F 21.2 °F 24.8 °F 93% 30.02 in 10.0 mi NNW 4.6 mph - N/A   Clear
12:35 AM 26.6 °F 19.1 °F 24.8 °F 93% 30.00 in 10.0 mi NNW 6.9 mph - N/A   Clear
12:55 AM 28.4 °F 19.1 °F 24.8 °F 86% 29.99 in 10.0 mi NNW 10.4 mph - N/A   Clear
1:15 AM 28.4 °F 21.2 °F 24.8 °F 86% 30.00 in 10.0 mi NNW 6.9 mph - N/A   Clear
1:35 AM 28.4 °F 22.2 °F 26.6 °F 93% 30.01 in 10.0 mi North 5.8 mph - N/A   Clear
1:55 AM 28.4 °F 19.7 °F 26.6 °F 93% 30.02 in 10.0 mi North 9.2 mph - N/A   Clear
2:15 AM 30.2 °F 23.4 °F 26.6 °F 86% 30.03 in 10.0 mi North 6.9 mph - N/A   Clear
2:35 AM 30.2 °F 21.9 °F 26.6 °F 86% 30.03 in 10.0 mi North 9.2 mph - N/A   Clear
2:55 AM 32.0 °F 23.6 °F 26.6 °F 80% 30.03 in 10.0 mi NNE 10.4 mph 18.4 mph N/A   Clear
3:15 AM 32.0 °F 21.6 °F 26.6 °F 80% 30.02 in 10.0 mi North 15.0 mph 21.9 mph N/A   Scattered Clouds
3:35 AM 32.0 °F 22.5 °F 26.6 °F 80% 30.01 in 10.0 mi North 12.7 mph - N/A   Mostly Cloudy
3:55 AM 32.0 °F 22.1 °F 26.6 °F 80% 30.00 in 10.0 mi North 13.8 mph 20.7 mph N/A   Overcast
4:15 AM 32.0 °F 22.5 °F 28.4 °F 87% 30.00 in 10.0 mi North 12.7 mph 24.2 mph N/A   Overcast
4:35 AM 32.0 °F 21.6 °F 28.4 °F 87% 30.02 in 10.0 mi North 15.0 mph 23.0 mph N/A   Overcast
5:15 AM 33.8 °F 23.9 °F 30.2 °F 87% 30.02 in 10.0 mi NNE 15.0 mph 21.9 mph N/A   Overcast
5:35 AM 33.8 °F 23.2 °F 30.2 °F 87% 30.02 in 10.0 mi North 17.3 mph 21.9 mph N/A   Overcast
5:55 AM 33.8 °F 23.5 °F 30.2 °F 87% 30.00 in 10.0 mi North 16.1 mph 25.3 mph N/A   Overcast
6:45 AM 35.6 °F 24.8 °F 28.4 °F 75% 30.01 in 10.0 mi North 19.6 mph 32.2 mph N/A   Overcast
7:57 AM 35.6 °F 24.5 °F 28.4 °F 75% 30.04 in 10.0 mi North 20.7 mph 28.8 mph N/A   Overcast
8:45 AM 35.6 °F 24.5 °F 28.4 °F 75% 30.03 in 10.0 mi North 20.7 mph 26.5 mph N/A   Overcast
9:45 AM 35.6 °F 25.2 °F 28.4 °F 75% 30.03 in 10.0 mi North 18.4 mph 29.9 mph N/A   Overcast
10:45 AM 35.6 °F 25.9 °F 26.6 °F 70% 30.01 in 10.0 mi North 16.1 mph 27.6 mph N/A   Overcast
11:45 AM 35.6 °F 24.2 °F 26.6 °F 70% 30.00 in 10.0 mi North 21.9 mph 28.8 mph N/A   Overcast
12:45 PM 35.6 °F 24.8 °F 26.6 °F 70% 29.99 in 10.0 mi North 19.6 mph 29.9 mph N/A   Overcast
1:45 PM 37.4 °F 27.8 °F 17.6 °F 45% 29.98 in 20.0 mi North 17.3 mph 29.9 mph N/A   Mostly Cloudy
2:45 PM 37.4 °F 26.4 °F 21.2 °F 52% 30.00 in 10.0 mi North 23.0 mph 34.5 mph N/A   Scattered Clouds
3:45 PM 35.6 °F 25.9 °F 21.2 °F 56% 30.01 in 10.0 mi North 16.1 mph 28.8 mph N/A   Scattered Clouds
4:45 PM 33.8 °F 25.3 °F 19.4 °F 56% 30.01 in 10.0 mi North 11.5 mph 23.0 mph N/A   Clear
5:45 PM 32.0 °F 23.0 °F 19.4 °F 60% 30.03 in 10.0 mi NNW 11.5 mph 20.7 mph N/A   Clear
6:45 PM 32.0 °F 23.0 °F 21.2 °F 64% 30.03 in 10.0 mi North 11.5 mph 18.4 mph N/A   Clear
8:15 PM 32.0 °F 22.5 °F 19.4 °F 60% 30.01 in 10.0 mi NNW 12.7 mph - N/A   Clear
8:35 PM 30.2 °F 21.3 °F 19.4 °F 64% 30.01 in 10.0 mi North 10.4 mph - N/A   Clear
8:45 PM 30.2 °F 20.8 °F -0.4 °F 27% 30.01 in 10.0 mi North 11.5 mph 19.6 mph N/A   Clear
8:55 PM 30.2 °F 21.3 °F 19.4 °F 64% 30.01 in 10.0 mi North 10.4 mph 16.1 mph N/A   Clear
9:15 PM 30.2 °F 21.3 °F 19.4 °F 64% 30.01 in 10.0 mi North 10.4 mph - N/A   Clear
9:55 PM 28.4 °F 19.7 °F 17.6 °F 64% 30.00 in 10.0 mi North 9.2 mph - N/A   Clear
10:15 PM 28.4 °F 19.7 °F 17.6 °F 64% 29.98 in 10.0 mi NNW 9.2 mph - N/A   Clear
10:35 PM 28.4 °F 20.4 °F 17.6 °F 64% 29.99 in 10.0 mi NNW 8.1 mph - N/A   Clear
10:55 PM 28.4 °F 20.4 °F 17.6 °F 64% 30.00 in 10.0 mi NNW 8.1 mph - N/A   Clear
11:15 PM 26.6 °F 19.1 °F 17.6 °F 69% 29.99 in 10.0 mi NNW 6.9 mph - N/A   Clear
11:35 PM 28.4 °F 19.7 °F 19.4 °F 69% 29.99 in 10.0 mi NNW 9.2 mph - N/A   Clear
11:55 PM 26.6 °F 17.5 °F 17.6 °F 69% 29.98 in 10.0 mi NW 9.2 mph - N/A   Clear